Location: Sobotiste
(48.7170°N, 17.4000°E)
Time: 12:14:16
(UTC+01:00)

Envisat - Pass Details

Date: 20 August 2018
Orbit: 764 x 766 km, 98.2° (Epoch: 19 November)

Event Time Altitude Azimuth Distance (km) Brightness Sun altitude
Rises 21:18:22 0° 214° (SSW) 3,219 6.2 -12.8°
Reaches altitude 10° 21:21:37 10° 236° (SW) 2,299 5.7 -13.2°
Maximum altitude 21:24:36 16° 272° (W) 1,945 5.9 -13.6°
Drops below altitude 10° 21:27:35 10° 309° (NW) 2,310 7.0 -14.0°
Sets 21:30:53 0° 331° (NNW) 3,243 7.6 -14.4°
